[[{"header":{"parameterUnit":"m.s-1","parameterCategory":1,"la1":30.2992,"la2":30.254,"lo1":-89.0895,"lo2":-89.0443,"dy":0.0025,"dx":0.0025,"nx":19,"ny":19,"refTime":"2026-05-19T03:00:00:Z","depth":0,"parameterNumber":2,"parameterNumberName":"U-component_of_WINDS"},"data":[0,0,0,-2.7604,-2.7605,-2.7631,-2.7631,-2.7686,-2.7687,0,0,0,0,0,0,0,0,0,0,0,-2.7609,-2.761,-2.7604,-2.7605,-2.7631,-2.7631,-2.7686,-2.7687,0,0,0,0,0,0,0,0,0,0,0,-2.7609,-2.761,-2.7611,-2.7605,-2.7631,-2.7631,-2.7686,-2.7659,0,0,0,0,0,0,0,0,0,0,-2.7629,-2.7647,-2.761,-2.7611,-2.7605,-2.7631,-2.7631,-2.7657,-2.766,-2.7684,0,-2.7709,0,-2.7699,-2.7692,-2.7693,0,0,0,-2.7595,-2.7645,-2.764,-2.7611,-2.7606,-2.7631,-2.7616,-2.7659,-2.7662,-2.7689,-2.7709,-2.7711,-2.77,-2.7693,-2.7693,-2.7863,-2.7864,0,0,-2.7593,-2.7621,-2.7637,-2.7643,-2.764,-2.7616,-2.7617,-2.7661,-2.7685,-2.7709,-2.7711,-2.7701,-2.7693,-2.7694,-2.7862,-2.7863,0,0,0,-2.7596,-2.7621,-2.7614,-2.7641,-2.7644,-2.7617,-2.7619,-2.7683,-2.7678,-2.7712,-2.7701,-2.7694,-2.7695,-2.786,-2.7862,-2.7952,0,0,0,-2.7595,-2.7622,-2.7614,-2.7631,-2.7644,-2.7664,-2.764,-2.7675,-2.7679,-2.7701,-2.7694,-2.7695,-2.7859,-2.7861,-2.7946,-2.7989,0,0,0,-2.7603,-2.7623,-2.7631,-2.7633,-2.7645,-2.7662,-2.766,-2.7675,-2.7674,-2.7693,-2.7696,-2.7858,-2.7861,-2.7941,-2.7981,-2.8042,0,0,0,-2.762,-2.771,-2.7633,-2.773,-2.7645,-2.7718,-2.766,-2.7712,-2.7739,-2.7694,-2.7859,-2.7862,-2.794,-2.7976,-2.8037,-2.8099,-2.8127,0,0,-2.7749,-2.7727,-2.7781,-2.7713,-2.7807,-2.7711,-2.7818,-2.7816,-2.7793,-2.7841,-2.7845,-2.7948,-2.7981,-2.8041,-2.8276,-2.8298,0,0,0,-2.7831,-2.7871,-2.789,-2.7917,-2.7918,-2.7923,-2.7902,-2.7901,-2.7941,-2.7823,-2.7986,-2.8004,-2.8039,-2.8067,-2.8086,-2.8114,-2.7876,-2.7876,-2.7876,-2.8054,-2.8019,-2.8107,-2.8076,-2.8103,-2.808,-2.8099,-2.8095,-2.8051,-2.809,-2.8105,-2.8251,-2.8285,-2.8299,-2.8329,-2.8134,-2.8134,-2.8135,-2.8135,-2.824,-2.829,-2.8231,-2.8295,-2.8258,-2.8311,-2.8293,-2.8261,-2.8305,-2.8237,-2.8266,-2.8195,-2.8325,-2.8349,-2.8141,-2.814,-2.8139,-2.8139,-2.8138,-2.8382,-2.84,-2.8398,-2.8434,-2.8465,-2.843,-2.8476,-2.844,-2.8406,-2.8435,-2.8446,-2.8444,-2.8439,-2.8443,-2.8443,-2.8444,-2.8444,-2.8445,-2.8445,-2.853,-2.8524,-2.8567,-2.8576,-2.8589,-2.8602,-2.8581,-2.8593,-2.8596,-2.8567,-2.8567,-2.852,-2.8345,-2.8301,-2.8453,-2.8451,-2.845,-2.8449,-2.8449,-2.8731,-2.868,-2.8746,-2.876,-2.8767,-2.8801,-2.8755,-2.8782,-2.8787,-2.8811,-2.8758,-2.8634,-2.8608,-2.8593,-2.8557,-2.8765,-2.8765,-2.8765,-2.8765,-2.8851,-2.8835,-2.8894,-2.8918,-2.8936,-2.8902,-2.8978,-2.8963,-2.8939,-2.894,-2.8904,-2.8853,-2.8839,-2.8822,-2.8801,-2.8767,-2.9024,-2.9024,-2.9025,-2.8973,-2.8957,-2.9029,-2.9005,-2.9009,-2.9013,-2.9083,-2.9113,-2.9075,-2.9034,-2.8939,-2.8929,-2.8846,-2.8821,-2.8779,-2.8747,-2.8684,0,0]},{"header":{"parameterUnit":"m.s-1","parameterCategory":1,"la1":30.2992,"la2":30.254,"lo1":-89.0895,"lo2":-89.0443,"dy":0.0025,"dx":0.0025,"nx":19,"ny":19,"refTime":"2026-05-19T03:00:00:Z","depth":0,"parameterNumber":3,"parameterNumberName":"V-component_of_WINDS"},"data":[0,0,0,0.1052,0.1051,0.1004,0.1004,0.0952,0.0952,0,0,0,0,0,0,0,0,0,0,0,0.107,0.107,0.1052,0.1051,0.1004,0.1004,0.0952,0.0952,0,0,0,0,0,0,0,0,0,0,0,0.107,0.107,0.107,0.105,0.1004,0.1004,0.0953,0.0985,0,0,0,0,0,0,0,0,0,0,0.1029,0.1051,0.107,0.107,0.105,0.1004,0.1004,0.0986,0.0983,0.0977,0,0.0973,0,0.0962,0.0949,0.0949,0,0,0,0.1047,0.1053,0.1037,0.107,0.105,0.1004,0.1024,0.0984,0.098,0.0973,0.0972,0.097,0.0961,0.0949,0.0949,0.093,0.093,0,0,0.1049,0.1064,0.1039,0.1034,0.1042,0.1026,0.1023,0.0982,0.0982,0.0972,0.0969,0.096,0.0949,0.0948,0.093,0.093,0,0,0,0.1059,0.1066,0.105,0.1037,0.1028,0.1024,0.1021,0.0984,0.0978,0.0968,0.096,0.0948,0.0948,0.093,0.093,0.095,0,0,0,0.1061,0.1072,0.1052,0.106,0.1029,0.1005,0.1025,0.0981,0.0976,0.096,0.0948,0.0947,0.093,0.093,0.0949,0.0957,0,0,0,0.1072,0.1073,0.1068,0.1061,0.1042,0.1006,0.0997,0.0979,0.097,0.0949,0.0947,0.093,0.093,0.0948,0.0955,0.0957,0,0,0,0.1087,0.1085,0.1069,0.1064,0.1042,0.1019,0.0997,0.0978,0.0962,0.0948,0.093,0.093,0.0948,0.0955,0.0957,0.0962,0.0965,0,0,0.1093,0.1087,0.1083,0.1066,0.105,0.1024,0.1011,0.0981,0.0965,0.0943,0.0942,0.0949,0.0955,0.0957,0.0978,0.0981,0,0,0,0.109,0.1087,0.1079,0.1065,0.1043,0.1026,0.0997,0.0986,0.0967,0.0956,0.095,0.0953,0.0953,0.0955,0.0957,0.0957,0.0931,0.0931,0.0931,0.1119,0.11,0.1092,0.1068,0.1054,0.1026,0.1013,0.0994,0.0977,0.0976,0.0969,0.0985,0.0987,0.0989,0.0989,0.097,0.097,0.097,0.097,0.1127,0.112,0.11,0.1085,0.1065,0.1052,0.1025,0.1014,0.0999,0.0988,0.0987,0.0977,0.0993,0.0992,0.0972,0.0971,0.0971,0.0971,0.0971,0.1144,0.1138,0.1126,0.1105,0.1091,0.1066,0.1054,0.1035,0.1018,0.1017,0.1009,0.1009,0.1007,0.1015,0.1015,0.1015,0.1015,0.1015,0.1015,0.1167,0.1153,0.1145,0.1124,0.1113,0.1097,0.107,0.1059,0.1042,0.103,0.103,0.1014,0.0998,0.0995,0.1016,0.1016,0.1015,0.1015,0.1015,0.1182,0.1176,0.1164,0.1154,0.1128,0.1117,0.1094,0.1074,0.1062,0.1057,0.1042,0.1033,0.1025,0.1022,0.102,0.1046,0.1046,0.1046,0.1046,0.1197,0.1192,0.1176,0.1162,0.1145,0.1124,0.1112,0.1091,0.1069,0.1061,0.1055,0.1049,0.1048,0.104,0.1038,0.1035,0.1064,0.1064,0.1064,0.1206,0.1199,0.1191,0.1171,0.115,0.1132,0.1121,0.1105,0.1078,0.1065,0.1054,0.1054,0.1045,0.1043,0.1029,0.1025,0.102,0,0]}]]